Weather in Ust-Kyakhta

Russia / Republic of Buryatia     50°31′19″N   106°16′36″E
temp.,
°C
wind,
m/s
gust,
m/s
humid.,
%
clouds,
%
prec.,
mm/h
press.,
hPa
HPBL,
m
15 april, thu
thu1523:00−2nw2264100 0.0 101913
02:00−3wsw22623 0.0 101810
05:00−5wsw22683 0.0 101710
08:00−1ssw224991 0.0 1016227
11:00+3wsw3432100 0.0 10131506
14:00+5nw3424100 0.0 10131909
17:00+3nne354541 0.1 1015780
20:00+1nnw61355100 0.4 10191140
16 april, fri
fri1623:00−1nnw6125611 0.0 1023908
02:00−3nw47600 0.0 1025189
05:00−5w22695 0.0 102713
08:00−1wsw25485 0.0 1027356
11:00+4w35285 0.0 10241444
14:00+8w34195 0.0 10211499
17:00+10sw24175 0.0 10181503
20:00+6s48280 0.0 1018120
17 april, sat
sat1723:00+5s512330 0.0 1017259
02:00+2s46495 0.0 1016105
05:000sse35555 0.0 101580
08:00+3s35449 0.0 1014267
11:00+11ssw46321 0.0 1010792
14:00+16sw47230 0.0 10062000
17:00+18sw16182 0.0 10042605
20:00+12nne36319 0.0 100495
18 april, sun
sun1823:00+7n223815 0.0 100714
02:00+5nne375885 0.0 1009162
05:00+2nne4879100 0.0 1010318
08:00+2n4670100 0.0 1011449
11:00+7nne4551100 0.0 1010780
14:00+11nne55385 0.0 10081311
17:00+9nne911426 0.0 10111115
20:00+4nne81355100 0.0 1018915
19 april, mon
mon1923:00+2nne511659 0.0 1021673
02:000nne256724 0.0 1023127
05:00−2n2268100 0.0 102315
08:00+2e12505 0.0 1022294
11:00+7ssw343337 0.0 10181181
14:00+12ssw57280 0.0 10131361
17:00+14sw45260 0.0 10101449
20:00+10ese3339100 0.0 101032